Wind_Speed
6 6 5 5 5 5 4 4 4 3 3 3 3 3 3 2 2 2 2 2 2 2 2 3 3 3 3 3 4 4 5 5 5 5 5 5 6 6 6 7 7 7 7
7 6 6 5 5 5 4 4 4 3 3 3 3 3 3 3 2 2 2 2 3 3 3 3 3 3 4 4 5 5 5 6 6 6 6 6 6 6 7 7 7 8 8
8 8 7 6 5 5 4 4 4 3 3 3 3 4 3 3 3 3 3 3 4 4 4 4 4 4 5 6 6 6 6 6 6 7 7 7 7 7 7 7 7 8 8
9 9 8 7 6 6 5 5 5 4 4 3 4 4 4 5 4 4 4 5 5 5 5 5 5 5 6 7 7 7 7 7 8 8 8 8 8 8 8 8 8 8 9
9 8 8 8 8 7 6 6 6 6 5 4 4 4 5 5 5 5 5 6 6 7 7 7 7 6 7 7 7 8 8 9 9 9 9 9 9 9 9 9 10 10 10
9 9 9 8 8 8 7 7 8 7 7 6 6 6 6 6 6 7 7 7 7 7 8 8 8 8 8 8 8 9 10 10 10 10 10 11 11 11 11 11 11 11 11
10 10 9 9 9 9 9 9 9 8 8 8 7 7 7 7 8 8 9 9 9 9 9 10 10 10 10 10 10 11 11 11 11 12 12 12 12 12 12 12 12 12 13
11 11 11 10 10 10 10 10 10 10 9 9 9 9 8 9 9 9 10 10 10 11 11 11 11 12 12 12 12 12 12 12 13 13 13 14 14 14 14 14 14 14 14
12 12 11 11 10 10 10 11 11 10 10 10 10 10 9 10 10 11 11 11 11 12 12 12 13 13 14 14 14 13 14 14 14 15 15 16 16 16 16 16 16 16 16
12 12 12 12 11 11 11 11 12 12 12 12 11 11 11 11 12 12 12 12 12 12 13 13 14 14 14 14 15 15 15 15 15 16 17 17 18 18 18 19 20 20 20
12 12 13 13 13 13 12 12 13 13 13 13 13 13 13 13 13 13 13 13 13 14 14 14 15 16 16 16 16 16 16 16 17 17 18 18 19 19 20 21 21 22 23
12 13 14 14 14 14 13 13 13 14 14 15 15 15 15 15 15 15 15 15 16 16 16 16 17 17 17 18 18 18 18 19 19 19 20 20 21 21 22 23 23 24 24
11 12 14 14 15 15 15 15 14 14 15 16 16 17 17 17 17 17 18 18 18 18 19 19 19 19 19 19 19 20 20 21 21 22 22 22 23 23 24 25 26 26 26
12 13 13 14 15 16 16 17 16 16 16 17 18 19 19 19 19 19 19 19 20 20 21 20 20 20 21 20 21 22 22 23 23 24 24 24 24 25 26 27 28 28 29
12 13 14 15 15 15 16 18 18 19 18 18 18 19 20 20 20 20 20 21 21 22 22 21 22 22 22 22 23 24 24 24 25 25 25 26 27 28 28 29 30 31 32
12 13 14 15 16 17 17 17 17 18 19 19 19 19 20 21 22 22 23 23 23 24 24 23 23 24 23 24 25 26 26 26 26 27 27 28 29 30 31 32 33 34 35
13 14 15 14 15 16 17 17 19 19 19 20 20 20 21 21 23 24 24 24 25 25 25 25 25 24 24 26 26 27 27 28 28 28 28 28 29 30 32 34 35 36 37
14 14 15 15 16 16 16 17 18 19 19 20 21 21 22 22 22 23 23 24 25 26 26 26 25 25 26 26 27 28 29 28 29 29 30 31 32 33 34 35 36 37 38
15 15 15 16 15 15 16 17 17 19 19 20 21 22 22 23 23 23 23 24 25 25 26 25 26 27 27 27 29 29 30 29 29 30 31 33 34 35 36 37 38 38 40
15 15 15 15 16 16 17 17 18 19 19 20 20 22 22 23 23 23 24 24 24 25 25 26 27 28 29 29 30 30 29 30 30 31 32 34 35 36 38 39 39 39 39
16 16 16 16 16 17 18 18 19 19 19 20 21 22 23 23 22 23 24 24 25 25 26 27 28 29 30 30 30 30 31 31 32 33 34 35 36 38 38 39 39 38 39
16 16 16 16 17 18 19 19 20 19 20 21 22 22 22 22 23 24 24 25 25 26 27 28 28 28 29 30 30 31 31 32 33 34 35 36 37 38 38 39 38 39 39
15 16 16 17 17 18 19 20 20 20 21 21 21 22 22 23 24 24 24 25 26 27 28 28 28 29 30 30 31 31 32 33 33 34 35 35 37 38 38 38 39 39 40
16 17 17 18 19 19 19 20 20 21 21 21 22 23 23 24 24 24 24 25 26 27 28 28 29 30 30 30 30 31 31 32 32 33 35 36 37 38 39 39 39 40 41
17 17 18 19 19 20 20 20 20 21 21 22 23 24 24 25 24 25 25 25 26 26 27 28 29 29 29 30 30 30 32 32 33 34 35 36 36 37 39 39 40 40 41
18 18 18 19 20 20 20 21 21 22 23 23 23 24 24 24 24 25 26 26 27 27 28 28 29 28 28 29 30 32 32 33 34 35 36 38 39 39 39 39 39 40 40
Wind_Direction
187 185 182 174 168 166 163 167 166 164 173 180 188 190 193 192 189 190 203 218 231 250 264 274 276 277 275 278 281 281 275 275 275 281 287 294 299 299 296 292 289 290 293
196 195 189 183 178 178 181 180 183 179 182 191 199 198 202 209 212 217 231 246 251 262 268 270 279 282 273 275 277 281 281 281 281 282 285 290 297 299 298 292 290 288 289
202 201 198 196 191 192 198 196 195 197 193 201 208 210 218 228 234 241 248 252 258 268 276 278 278 278 272 271 273 279 281 283 287 287 286 288 292 294 294 293 292 289 287
207 207 205 206 205 208 213 210 203 208 208 213 220 226 231 236 245 253 258 261 263 268 277 283 281 279 273 273 275 277 282 283 288 288 288 288 288 291 292 292 290 288 286
211 212 212 213 215 218 222 223 217 220 223 227 235 238 241 243 251 259 265 268 267 266 271 277 282 282 279 277 276 276 282 285 285 285 286 289 288 288 288 287 289 288 287
218 222 221 220 224 228 231 229 225 228 233 238 245 250 254 258 262 265 269 269 269 268 269 275 281 280 279 280 279 280 284 287 286 284 284 288 284 286 288 287 286 287 285
223 227 229 231 231 233 236 233 232 234 238 242 248 254 260 265 268 268 270 270 271 271 272 275 278 279 278 279 280 279 281 284 281 279 282 286 283 284 287 286 286 286 287
226 226 229 234 235 239 241 240 239 241 244 247 251 255 261 264 267 270 272 273 273 273 274 275 277 276 277 278 276 275 279 281 281 278 279 281 283 284 286 284 286 286 286
228 227 230 236 237 240 245 247 246 245 246 249 253 257 262 267 269 271 272 273 274 276 276 277 277 277 277 277 276 277 278 280 280 279 280 283 283 282 281 282 282 283 283
230 232 238 239 240 245 249 250 249 248 250 253 256 260 264 268 269 270 272 276 277 278 278 278 279 277 278 277 277 278 278 279 280 280 281 283 283 283 282 282 282 281 281
236 241 243 243 244 248 251 253 252 252 253 255 257 261 265 269 270 271 272 275 276 277 279 280 278 278 279 277 277 279 281 280 279 280 281 282 283 284 284 282 282 281 281
244 247 247 250 251 253 257 256 253 255 256 257 260 262 265 268 269 271 272 273 275 276 277 278 276 276 277 277 276 278 279 280 279 279 280 281 283 284 285 284 283 281 281
254 252 254 253 252 256 258 254 255 258 260 261 263 265 267 267 268 270 271 273 274 274 275 276 275 277 277 277 277 278 280 279 279 279 280 280 281 283 284 285 284 282 281
262 257 256 257 257 257 257 255 256 259 261 264 266 267 266 266 267 268 271 273 274 275 276 277 276 277 276 277 278 279 280 280 281 280 280 281 283 284 284 284 284 283 282
268 263 259 260 260 261 260 259 259 260 261 265 268 268 267 268 267 269 270 273 274 274 275 276 277 278 277 276 277 279 280 282 283 282 281 282 283 284 284 285 284 284 284
270 269 267 265 262 263 263 262 263 263 264 265 266 268 269 270 271 270 270 273 275 275 275 276 278 279 279 279 280 281 281 281 283 284 284 284 286 285 284 286 286 286 285
274 273 270 269 270 268 264 265 266 266 265 266 266 268 270 271 273 270 270 273 274 275 275 275 278 280 280 282 285 284 283 283 283 284 284 285 286 287 287 287 287 288 287
276 273 270 272 273 271 267 267 269 268 269 269 269 271 273 272 272 271 272 273 274 275 275 277 279 281 283 285 286 286 284 284 283 283 284 285 286 288 289 289 290 290 291
278 274 275 274 273 271 271 272 273 273 271 271 272 273 275 275 273 273 273 275 275 276 277 277 279 281 283 285 287 285 285 286 286 286 287 287 288 287 289 290 291 292 292
283 280 277 274 272 272 274 275 278 278 276 275 275 274 275 277 277 276 275 276 277 277 278 279 279 280 281 282 283 284 284 285 286 286 287 288 289 290 291 292 293 293 292
283 283 279 276 274 274 276 278 280 279 278 277 277 277 277 277 278 279 278 278 278 278 280 281 280 280 281 282 284 284 285 286 287 288 289 290 292 292 293 293 293 293 293
285 282 278 276 277 279 280 280 280 279 279 280 280 279 280 279 280 281 280 280 281 281 282 281 283 283 283 284 285 285 286 288 290 291 292 293 293 293 294 294 294 295 296
287 281 278 277 280 281 279 280 281 281 279 280 281 282 284 283 283 283 283 282 283 283 283 283 283 284 285 286 285 285 287 289 290 291 292 292 293 294 294 294 295 297 297
288 285 280 279 279 281 282 283 283 283 283 284 285 286 286 285 284 284 286 287 288 288 287 286 287 286 286 287 286 286 287 289 291 291 293 294 294 296 296 296 297 297 298
290 287 282 282 282 282 283 285 284 284 285 286 286 287 288 288 286 287 289 289 290 290 289 288 290 288 285 286 287 288 291 292 292 293 295 296 296 297 298 297 298 298 299
292 290 286 285 285 284 284 284 284 285 285 286 287 289 290 289 288 290 292 292 291 292 291 292 291 289 289 290 291 293 294 294 294 295 296 296 297 298 298 299 299 300 300
Height
5906 5907 5907 5908 5908 5909 5910 5910 5910 5911 5911 5911 5912 5912 5912 5912 5912 5913 5913 5913 5913 5913 5913 5912 5912 5912 5912 5912 5912 5912 5912 5912 5912 5911 5911 5911 5911 5910 5910 5910 5909 5909 5909
5905 5906 5907 5907 5908 5909 5909 5910 5910 5910 5911 5911 5911 5912 5912 5912 5912 5912 5912 5912 5912 5912 5912 5912 5912 5911 5911 5911 5911 5911 5911 5911 5910 5910 5910 5910 5910 5909 5908 5908 5908 5907 5907
5904 5905 5906 5907 5907 5908 5909 5909 5910 5910 5911 5911 5911 5911 5912 5912 5912 5912 5912 5912 5912 5911 5911 5911 5911 5911 5910 5910 5910 5910 5910 5909 5909 5909 5909 5909 5908 5907 5907 5906 5906 5906 5905
5903 5904 5905 5906 5907 5908 5908 5909 5909 5910 5910 5911 5911 5911 5911 5911 5911 5911 5911 5911 5911 5910 5910 5910 5910 5910 5909 5909 5909 5909 5908 5908 5908 5907 5907 5907 5906 5906 5905 5905 5904 5904 5903
5902 5903 5904 5905 5906 5907 5907 5908 5909 5909 5910 5910 5910 5910 5910 5910 5910 5910 5910 5910 5909 5909 5909 5909 5909 5909 5908 5908 5908 5907 5907 5906 5906 5906 5905 5905 5904 5904 5903 5903 5902 5902 5901
5901 5902 5903 5904 5905 5906 5906 5907 5907 5908 5909 5909 5909 5909 5909 5909 5909 5909 5909 5908 5908 5908 5908 5908 5907 5907 5907 5906 5906 5906 5905 5905 5904 5904 5903 5903 5902 5902 5901 5901 5900 5899 5899
5899 5900 5901 5902 5903 5904 5905 5905 5906 5906 5907 5907 5908 5908 5908 5907 5908 5908 5907 5907 5907 5907 5906 5906 5905 5905 5905 5904 5904 5904 5903 5903 5902 5902 5901 5901 5900 5899 5899 5898 5897 5897 5896
5897 5898 5899 5900 5901 5902 5903 5903 5904 5904 5905 5905 5906 5906 5906 5906 5906 5906 5906 5905 5905 5905 5904 5904 5903 5903 5902 5902 5901 5901 5900 5900 5899 5899 5898 5898 5897 5896 5896 5895 5894 5893 5893
5895 5896 5897 5898 5899 5900 5900 5901 5902 5902 5903 5903 5904 5904 5904 5904 5904 5904 5903 5903 5903 5902 5902 5901 5901 5900 5899 5899 5898 5898 5898 5897 5896 5896 5895 5894 5894 5893 5892 5891 5890 5889 5889
5892 5893 5894 5895 5896 5897 5898 5899 5899 5900 5900 5901 5901 5902 5902 5902 5902 5901 5901 5900 5900 5900 5899 5899 5898 5897 5897 5896 5895 5895 5894 5894 5893 5892 5891 5890 5890 5889 5888 5887 5886 5885 5884
5890 5891 5892 5893 5894 5895 5896 5896 5897 5897 5897 5898 5898 5899 5899 5899 5899 5899 5898 5898 5897 5897 5896 5895 5895 5894 5893 5893 5892 5891 5891 5890 5889 5888 5887 5886 5885 5884 5883 5882 5881 5880 5879
5888 5889 5890 5891 5891 5892 5893 5893 5893 5894 5894 5895 5895 5895 5896 5896 5896 5895 5895 5894 5894 5893 5893 5892 5891 5890 5889 5889 5888 5888 5887 5886 5885 5884 5883 5882 5881 5880 5879 5877 5876 5875 5874
5886 5886 5887 5888 5888 5889 5889 5890 5890 5891 5891 5891 5891 5892 5892 5892 5892 5892 5891 5891 5890 5889 5889 5888 5887 5886 5885 5885 5884 5883 5882 5881 5880 5879 5878 5877 5876 5874 5873 5872 5870 5869 5868
5883 5883 5884 5885 5885 5886 5886 5886 5887 5887 5887 5887 5887 5887 5888 5887 5887 5887 5887 5886 5886 5885 5884 5883 5882 5882 5881 5880 5879 5878 5877 5876 5875 5874 5872 5871 5870 5868 5867 5865 5864 5863 5861
5880 5880 5880 5881 5882 5882 5882 5882 5883 5883 5883 5883 5883 5883 5883 5883 5883 5882 5882 5882 5881 5880 5880 5879 5878 5877 5875 5874 5873 5872 5871 5870 5868 5867 5866 5865 5863 5862 5860 5859 5857 5855 5854
5877 5877 5877 5877 5878 5878 5878 5878 5878 5878 5879 5879 5878 5878 5878 5878 5878 5877 5877 5876 5876 5875 5874 5873 5872 5871 5870 5869 5867 5866 5865 5863 5862 5861 5859 5858 5856 5855 5853 5851 5849 5847 5845
5874 5874 5874 5874 5874 5874 5874 5874 5874 5874 5874 5874 5874 5874 5873 5873 5872 5872 5871 5871 5870 5869 5868 5867 5866 5865 5864 5863 5861 5860 5858 5857 5855 5854 5852 5850 5849 5847 5845 5843 5841 5838 5836
5871 5870 5870 5870 5870 5870 5870 5870 5870 5869 5869 5869 5869 5868 5868 5867 5866 5866 5865 5865 5864 5863 5862 5861 5860 5858 5857 5856 5854 5853 5852 5850 5848 5846 5845 5843 5841 5839 5837 5834 5832 5829 5826
5867 5867 5867 5866 5866 5866 5866 5865 5865 5864 5864 5864 5863 5863 5862 5861 5861 5860 5859 5859 5857 5856 5855 5854 5853 5852 5851 5850 5848 5846 5844 5843 5841 5839 5837 5835 5832 5830 5828 5825 5822 5819 5816
5864 5863 5863 5862 5862 5862 5861 5861 5860 5860 5859 5859 5858 5857 5856 5856 5855 5854 5853 5852 5851 5850 5849 5848 5847 5845 5844 5843 5841 5839 5837 5835 5833 5831 5828 5826 5823 5821 5818 5815 5812 5809 5806
5861 5860 5858 5858 5857 5857 5857 5856 5855 5854 5854 5853 5852 5852 5851 5850 5849 5848 5847 5846 5845 5844 5842 5841 5839 5838 5837 5835 5833 5831 5829 5827 5825 5822 5820 5817 5815 5812 5808 5805 5802 5799 5795
5857 5855 5855 5854 5853 5852 5852 5851 5850 5849 5849 5848 5847 5846 5845 5844 5843 5841 5840 5839 5838 5837 5835 5833 5832 5830 5829 5827 5825 5823 5821 5819 5817 5814 5811 5808 5805 5802 5799 5795 5792 5788 5784
5853 5852 5851 5850 5849 5848 5848 5847 5845 5844 5843 5842 5841 5840 5839 5838 5836 5835 5834 5832 5831 5829 5828 5826 5824 5823 5821 5819 5817 5815 5812 5810 5808 5805 5802 5799 5795 5792 5789 5785 5781 5777 5774
5849 5848 5847 5846 5845 5844 5843 5842 5841 5840 5839 5837 5836 5835 5833 5832 5830 5829 5827 5825 5824 5822 5820 5818 5816 5814 5813 5811 5808 5806 5804 5801 5799 5796 5793 5790 5786 5782 5778 5775 5771 5767 5763
5845 5843 5842 5841 5840 5839 5838 5837 5836 5835 5833 5832 5830 5829 5827 5826 5824 5822 5820 5818 5817 5815 5812 5810 5808 5806 5804 5802 5800 5798 5796 5793 5790 5787 5784 5780 5776 5772 5769 5765 5760 5756 5751
5841 5839 5838 5837 5836 5834 5833 5832 5831 5829 5828 5826 5824 5823 5821 5819 5818 5816 5814 5812 5810 5807 5805 5803 5801 5798 5796 5794 5792 5790 5787 5784 5781 5778 5774 5770 5766 5762 5758 5754 5750 5745 5741